�������l�o���
Date,Time,MP-1(��Sv/h),MP-2(��Sv/h),MP-3(��Sv/h),MP-4(��Sv/h),MP-5(��Sv/h),MP-6(��Sv/h),MP-7(��Sv/h),MP-8(��Sv/h),����,����(m/s),���J
2016/07/20,00:00,1.318,2.132,2.001,2.274,1.665,0.643,1.207,1.041,���k��,2.9,��
2016/07/20,00:10,1.317,2.127,2.001,2.276,1.663,0.641,1.206,1.042,���k��,1.5,��
2016/07/20,00:20,1.316,2.128,2.000,2.273,1.666,0.642,1.208,1.041,�k��,2.8,��
2016/07/20,00:30,1.314,2.128,2.002,2.272,1.663,0.640,1.206,1.040,���k��,2.6,��
2016/07/20,00:40,1.316,2.128,2.002,2.276,1.667,0.642,1.206,1.039,���k��,2.5,��
2016/07/20,00:50,1.317,2.126,2.003,2.273,1.663,0.642,1.206,1.040,���k��,3.5,��
2016/07/20,01:00,1.317,2.128,1.999,2.274,1.664,0.642,1.209,1.041,���k��,3.8,��
2016/07/20,01:10,1.317,2.126,2.001,2.274,1.663,0.641,1.206,1.040,���k��,3.3,��
2016/07/20,01:20,1.317,2.128,2.002,2.272,1.660,0.640,1.209,1.041,�k��,1.5,��
2016/07/20,01:30,1.316,2.129,2.001,2.274,1.663,0.642,1.207,1.040,�k�k��,1.4,��
2016/07/20,01:40,1.316,2.127,2.002,2.274,1.665,0.641,1.207,1.039,�k�k��,1.1,��
2016/07/20,01:50,1.315,2.123,2.000,2.272,1.660,0.640,1.206,1.041,�k�k��,2.9,��
2016/07/20,02:00,1.315,2.125,2.000,2.273,1.661,0.641,1.206,1.038,�k,3.8,��
2016/07/20,02:10,1.317,2.127,1.997,2.274,1.663,0.641,1.208,1.040,�k�k��,4.7,��
2016/07/20,02:20,1.314,2.129,2.000,2.273,1.665,0.641,1.206,1.041,�k,3.8,��
2016/07/20,02:30,1.317,2.129,1.999,2.273,1.665,0.640,1.207,1.041,�k,3.2,��
2016/07/20,02:40,1.316,2.125,2.002,2.273,1.662,0.642,1.204,1.041,�k,3.2,��
2016/07/20,02:50,1.314,2.127,1.999,2.275,1.663,0.642,1.204,1.040,�k,2.9,��
2016/07/20,03:00,1.315,2.125,2.001,2.274,1.661,0.641,1.207,1.039,�k�k��,3.4,��
2016/07/20,03:10,1.315,2.125,2.002,2.273,1.661,0.642,1.207,1.040,�k,3.9,��
2016/07/20,03:20,1.314,2.122,2.000,2.273,1.662,0.641,1.208,1.039,�k,4.2,��
2016/07/20,03:30,1.313,2.126,1.999,2.273,1.659,0.641,1.207,1.041,�k,4.1,��
2016/07/20,03:40,1.315,2.122,2.000,2.277,1.662,0.640,1.206,1.040,�k,3.6,��
2016/07/20,03:50,1.314,2.124,1.999,2.272,1.658,0.641,1.207,1.039,�k,2.4,��
2016/07/20,04:00,1.315,2.123,2.002,2.273,1.663,0.640,1.204,1.041,�k�k��,2.2,��
2016/07/20,04:10,1.317,2.125,1.998,2.271,1.660,0.641,1.205,1.037,�k�k��,1.9,��
2016/07/20,04:20,1.314,2.123,1.999,2.272,1.661,0.639,1.208,1.041,�k��,1.6,��
2016/07/20,04:30,1.316,2.123,1.999,2.273,1.661,0.641,1.206,1.041,�k��,1.6,��
2016/07/20,04:40,1.314,2.125,1.999,2.272,1.660,0.641,1.207,1.040,�k�k��,1.6,��
2016/07/20,04:50,1.315,2.123,2.000,2.273,1.660,0.640,1.208,1.041,�k,1.4,��
2016/07/20,05:00,1.314,2.126,1.999,2.272,1.660,0.642,1.207,1.040,�k,2.2,��
2016/07/20,05:10,1.316,2.122,2.000,2.274,1.660,0.641,1.207,1.042,�k�k��,2.3,��
2016/07/20,05:20,1.316,2.122,1.998,2.274,1.660,0.640,1.205,1.041,�k�k��,2.7,��
2016/07/20,05:30,1.316,2.122,2.002,2.274,1.657,0.640,1.206,1.040,�k�k��,3.2,��
2016/07/20,05:40,1.316,2.122,2.000,2.273,1.660,0.640,1.206,1.041,�k�k��,3.5,��
2016/07/20,05:50,1.312,2.126,2.003,2.272,1.660,0.638,1.206,1.042,�k,4.1,��
2016/07/20,06:00,1.315,2.126,1.990,2.272,1.659,0.640,1.205,1.039,�k,3.9,��
2016/07/20,06:10,1.316,2.125,1.986,2.276,1.661,0.641,1.208,1.040,�k,3.6,��
2016/07/20,06:20,1.316,2.124,1.989,2.276,1.662,0.640,1.207,1.042,�k,3.8,��
2016/07/20,06:30,1.313,2.125,1.981,2.274,1.658,0.639,1.205,1.040,�k,4.1,��
2016/07/20,06:40,1.317,2.130,1.992,2.275,1.658,0.638,1.206,1.040,�k,3.1,��
2016/07/20,06:50,1.313,2.129,1.990,2.276,1.659,0.642,1.209,1.040,�k�k��,3.4,��
2016/07/20,07:00,1.315,2.129,1.997,2.274,1.660,0.639,1.205,1.041,�k,3.9,��
2016/07/20,07:10,1.315,2.127,1.999,2.274,1.663,0.639,1.205,1.042,�k�k��,3.5,��
2016/07/20,07:20,1.315,2.129,1.995,2.277,1.664,0.639,1.205,1.041,�k�k��,3.1,��
2016/07/20,07:30,1.315,2.126,1.998,2.274,1.660,0.637,1.205,1.040,�k�k��,3.5,��
2016/07/20,07:40,1.316,2.124,1.996,2.275,1.663,0.637,1.204,1.041,�k�k��,4.2,��
2016/07/20,07:50,1.312,2.124,1.996,2.271,1.659,0.634,1.208,1.041,�k��,3.6,��
2016/07/20,08:00,1.315,2.123,1.997,2.277,1.657,0.636,1.204,1.038,�k�k��,3.5,��
2016/07/20,08:10,1.311,2.121,1.993,2.276,1.652,0.636,1.208,1.038,�k�k��,3.0,��
2016/07/20,08:20,1.314,2.124,1.991,2.275,1.656,0.635,1.207,1.039,�k�k��,3.4,��
2016/07/20,08:30,1.312,2.124,1.991,2.276,1.663,0.637,1.205,1.037,�k�k��,3.6,��
2016/07/20,08:40,1.311,2.124,1.990,2.277,1.663,0.639,1.206,1.038,�k�k��,3.5,��
2016/07/20,08:50,1.313,2.127,1.994,2.277,1.661,0.637,1.208,1.039,�k�k��,3.8,��
2016/07/20,09:00,1.313,2.127,1.996,2.277,1.665,0.639,1.205,1.037,�k�k��,3.8,��
2016/07/20,09:10,1.313,2.128,1.996,2.277,1.663,0.637,1.203,1.038,�k��,3.5,��
2016/07/20,09:20,1.313,2.129,1.998,2.281,1.663,0.637,1.204,1.039,�k�k��,2.7,��
2016/07/20,09:30,1.310,2.130,2.001,2.278,1.663,0.639,1.206,1.039,�k��,2.1,��
2016/07/20,09:40,1.315,2.126,2.000,2.277,1.663,0.639,1.206,1.039,�k��,2.8,��
2016/07/20,09:50,1.315,2.125,1.997,2.278,1.661,0.637,1.204,1.040,�k��,2.7,��
2016/07/20,10:00,1.311,2.128,1.995,2.277,1.661,0.639,1.206,1.038,�k�k��,3.0,��
2016/07/20,10:10,1.310,2.130,1.997,2.279,1.664,0.638,1.203,1.039,�k��,3.0,��
2016/07/20,10:20,1.311,2.131,1.994,2.276,1.663,0.639,1.205,1.038,�k��,2.8,��
2016/07/20,10:30,-,2.131,2.004,2.278,1.668,0.638,1.209,1.038,��,2.5,��
2016/07/20,10:40,-,2.127,1.997,2.280,1.669,0.640,1.207,1.038,���k��,2.5,��
2016/07/20,10:50,-,2.132,2.003,2.278,1.665,0.640,1.205,1.039,�k��,2.3,��
2016/07/20,11:00,-,2.131,2.002,2.280,1.663,0.640,1.206,1.039,���k��,2.9,��
2016/07/20,11:10,-,2.132,2.003,2.279,1.666,0.639,1.208,1.037,���k��,3.3,��
2016/07/20,11:20,1.309,2.128,2.005,2.274,1.665,0.639,1.207,1.035,���k��,2.8,��
2016/07/20,11:30,1.314,2.133,1.998,2.278,1.666,0.639,1.208,1.040,���k��,2.8,��
2016/07/20,11:40,1.316,2.129,2.001,2.275,1.665,0.639,1.205,1.038,���k��,3.1,��
2016/07/20,11:50,1.313,2.134,2.006,2.277,1.665,0.642,1.209,1.039,���k��,3.0,��
2016/07/20,12:00,1.318,2.135,1.998,2.277,1.666,0.640,1.207,1.036,�k��,3.2,��
2016/07/20,12:10,1.318,2.137,1.999,2.278,1.666,0.641,1.209,1.040,���k��,3.6,��
2016/07/20,12:20,1.315,2.133,2.004,2.279,1.663,0.639,1.207,1.038,�k��,3.6,��
2016/07/20,12:30,1.319,2.137,2.007,2.280,1.630,0.639,1.207,1.037,���k��,2.5,��
2016/07/20,12:40,1.318,2.136,2.010,2.279,1.667,0.639,1.208,1.037,��,3.2,��
2016/07/20,12:50,1.318,2.133,2.003,2.281,1.667,0.641,1.210,1.039,���k��,3.0,��
2016/07/20,13:00,1.316,2.138,2.001,2.283,1.668,0.638,1.208,1.037,��,3.3,��
2016/07/20,13:10,1.317,2.135,1.993,2.279,1.666,0.640,1.206,1.039,���k��,3.5,��
2016/07/20,13:20,1.319,2.137,2.000,2.280,1.667,0.640,1.208,1.039,���k��,3.6,��
2016/07/20,13:30,1.318,2.137,1.999,2.279,1.670,0.640,1.207,1.039,�k��,3.5,��
2016/07/20,13:40,1.317,2.137,1.997,2.280,1.665,0.640,1.205,1.040,���k��,3.9,��
2016/07/20,13:50,1.317,2.137,1.992,2.283,1.668,0.642,1.208,1.038,���k��,3.5,��
2016/07/20,14:00,1.316,2.137,2.009,2.278,1.671,0.641,1.207,1.041,���k��,3.8,��
2016/07/20,14:10,1.318,2.137,2.006,2.283,1.668,0.640,1.207,1.040,���k��,3.5,��
2016/07/20,14:20,1.316,2.135,2.007,2.282,1.674,0.641,1.208,1.040,���k��,3.0,��
2016/07/20,14:30,1.319,2.139,2.008,2.278,1.676,0.641,1.207,1.038,���k��,3.8,��
2016/07/20,14:40,1.319,2.139,2.007,2.281,1.672,0.641,1.207,1.038,���k��,3.1,��
2016/07/20,14:50,1.318,2.137,2.006,2.280,1.674,0.639,1.206,1.039,���k��,2.5,��
2016/07/20,15:00,1.317,2.136,2.010,2.280,1.673,0.639,1.207,1.039,���k��,2.6,��
2016/07/20,15:10,1.318,2.136,2.008,2.283,1.673,0.641,1.206,1.038,���k��,3.0,��
2016/07/20,15:20,1.318,2.134,2.007,2.281,1.675,0.640,1.207,1.038,���k��,2.6,��
2016/07/20,15:30,1.319,2.135,2.008,2.281,1.674,0.638,1.209,1.038,���k��,2.5,��
2016/07/20,15:40,1.317,2.142,2.006,2.286,1.675,0.640,1.208,1.038,���k��,2.3,��
2016/07/20,15:50,1.316,2.136,2.008,2.284,1.672,0.640,1.211,1.037,���k��,2.4,��
2016/07/20,16:00,1.322,2.138,2.007,2.283,1.673,0.641,1.208,1.039,���k��,2.6,��
2016/07/20,16:10,1.315,2.135,2.006,2.285,1.675,0.641,1.208,1.039,���k��,2.9,��
2016/07/20,16:20,1.317,2.137,2.005,2.285,1.676,0.641,1.207,1.040,���k��,2.8,��
2016/07/20,16:30,1.317,2.138,2.008,2.281,1.672,0.641,1.209,1.040,���k��,2.9,��
2016/07/20,16:40,1.321,2.136,2.008,2.282,1.673,0.641,1.209,1.040,���k��,2.6,��
2016/07/20,16:50,1.318,2.139,2.010,2.285,1.672,0.641,1.209,1.039,���k��,3.0,��
2016/07/20,17:00,1.318,2.141,2.012,2.284,1.674,0.640,1.207,1.040,���k��,3.0,��
2016/07/20,17:10,1.319,2.140,2.010,2.286,1.671,0.640,1.207,1.040,�k��,2.7,��
2016/07/20,17:20,1.320,2.140,2.007,2.286,1.675,0.641,1.209,1.041,���k��,2.9,��
2016/07/20,17:30,1.320,2.140,2.004,2.283,1.677,0.641,1.205,1.041,�k��,2.2,��
2016/07/20,17:40,1.322,2.138,2.008,2.286,1.677,0.641,1.208,1.043,�k��,2.8,��
2016/07/20,17:50,1.318,2.138,2.008,2.286,1.677,0.641,1.209,1.039,�k��,2.5,��
2016/07/20,18:00,1.322,2.138,2.010,2.288,1.674,0.642,1.208,1.040,�k��,2.6,��
2016/07/20,18:10,1.319,2.139,2.009,2.283,1.678,0.641,1.209,1.042,�k��,2.3,��
2016/07/20,18:20,1.321,2.140,2.008,2.284,1.674,0.640,1.208,1.041,�k��,2.5,��
2016/07/20,18:30,1.320,2.141,2.008,2.284,1.674,0.641,1.206,1.042,�k��,2.6,��
2016/07/20,18:40,1.322,2.138,2.011,2.286,1.675,0.642,1.208,1.042,�k��,3.4,��
2016/07/20,18:50,1.318,2.140,2.005,2.283,1.676,0.642,1.210,1.042,�k��,2.4,��
2016/07/20,19:00,1.320,2.140,2.009,2.286,1.673,0.641,1.208,1.040,�k��,3.0,��
2016/07/20,19:10,1.321,2.142,2.007,2.287,1.674,0.641,1.208,1.041,���k��,3.0,��
2016/07/20,19:20,1.319,2.139,2.006,2.283,1.677,0.639,1.209,1.040,�k��,3.5,��
2016/07/20,19:30,1.319,2.137,2.009,2.285,1.673,0.641,1.210,1.042,�k��,3.0,��
2016/07/20,19:40,1.320,2.139,2.006,2.287,1.672,0.641,1.208,1.042,�k��,3.8,��
2016/07/20,19:50,1.319,2.135,2.007,2.282,1.675,0.641,1.210,1.042,�k��,4.2,��
2016/07/20,20:00,1.319,2.139,2.009,2.283,1.674,0.640,1.209,1.042,�k��,4.1,��
2016/07/20,20:10,1.317,2.139,2.008,2.287,1.674,0.641,1.208,1.039,�k��,3.8,��
2016/07/20,20:20,1.319,2.142,2.006,2.287,1.673,0.641,1.210,1.042,�k��,4.4,��
2016/07/20,20:30,1.321,2.137,2.009,2.285,1.675,0.642,1.208,1.041,�k��,4.7,��
2016/07/20,20:40,1.320,2.138,2.007,2.285,1.673,0.642,1.208,1.041,�k��,4.9,��
2016/07/20,20:50,1.321,2.138,2.008,2.284,1.675,0.639,1.208,1.042,�k��,4.4,��
2016/07/20,21:00,1.318,2.140,2.008,2.287,1.674,0.640,1.206,1.041,�k�k��,4.7,��
2016/07/20,21:10,1.320,2.138,2.006,2.286,1.670,0.639,1.208,1.041,�k�k��,3.8,��
2016/07/20,21:20,1.319,2.140,2.007,2.286,1.674,0.639,1.207,1.040,�k��,4.4,��
2016/07/20,21:30,1.318,2.133,2.007,2.281,1.669,0.640,1.210,1.040,�k��,4.2,��
2016/07/20,21:40,1.318,2.135,2.007,2.288,1.673,0.640,1.206,1.040,�k�k��,3.6,��
2016/07/20,21:50,1.318,2.139,2.010,2.285,1.673,0.640,1.208,1.041,�k�k��,3.5,��
2016/07/20,22:00,1.317,2.136,2.009,2.285,1.672,0.640,1.208,1.040,�k��,4.1,��
2016/07/20,22:10,1.318,2.136,2.005,2.287,1.671,0.640,1.207,1.039,�k�k��,3.8,��
2016/07/20,22:20,1.320,2.140,2.005,2.284,1.673,0.640,1.207,1.039,�k��,3.8,��
2016/07/20,22:30,1.321,2.134,2.005,2.285,1.672,0.641,1.207,1.042,�k��,3.8,��
2016/07/20,22:40,1.320,2.136,2.009,2.285,1.673,0.642,1.206,1.041,�k��,3.4,��
2016/07/20,22:50,1.318,2.136,2.007,2.286,1.671,0.639,1.207,1.038,���k��,3.8,��
2016/07/20,23:00,1.318,2.137,2.007,2.284,1.674,0.640,1.207,1.043,�k�k��,3.5,��
2016/07/20,23:10,1.318,2.138,2.008,2.283,1.672,0.638,1.209,1.042,�k��,3.3,��
2016/07/20,23:20,1.319,2.138,2.010,2.284,1.671,0.641,1.209,1.041,�k��,3.3,��
2016/07/20,23:30,1.318,2.137,2.007,2.282,1.670,0.639,1.207,1.041,�k�k��,3.0,��
2016/07/20,23:40,1.318,2.134,2.006,2.285,1.668,0.640,1.208,1.042,�k��,3.1,��
2016/07/20,23:50,1.320,2.137,2.006,2.287,1.672,0.640,1.206,1.038,�k��,3.1,��
